• In Portugal
  • List of Countries
  • For 7 days
  • Water Temperature
  • Satellite Maps
  • Weather Map
  • Weather Widgets
  • user-avatar
    Login

    Hourly Weather Porto Alegre

    Today, 17 October, Tuesday

    Time Temperature Precipitation Wind Pressure Humidity
    00:00 +20°C° 0 mm 3 mps 760 mmHg 79%
    01:00 +20°C° 0 mm 3 mps 760 mmHg 80%
    02:00 +19°C° 0 mm 3 mps 760 mmHg 80%
    03:00 +19°C° 0 mm 3 mps 760 mmHg 79%
    04:00 +19°C° 0 mm 3 mps 760 mmHg 79%
    05:00 +18°C° 0 mm 2 mps 760 mmHg 80%
    06:00 +18°C° 0 mm 2 mps 760 mmHg 80%
    07:00 +20°C° 0 mm 2 mps 760 mmHg 73%
    08:00 +23°C° 0 mm 2 mps 761 mmHg 66%
    09:00 +25°C° 0 mm 3 mps 760 mmHg 57%
    10:00 +27°C° 0 mm 2 mps 760 mmHg 52%
    11:00 +29°C° 0 mm 2 mps 759 mmHg 47%
    12:00 +32°C° 0 mm 2 mps 759 mmHg 42%
    13:00 +32°C° 0 mm 2 mps 758 mmHg 42%
    14:00 +34°C° 0 mm 2 mps 758 mmHg 41%
    15:00 +35°C° 0 mm 2 mps 757 mmHg 40%
    16:00 +32°C° 0 mm 2 mps 757 mmHg 48%
    17:00 +30°C° 0 mm 2 mps 756 mmHg 56%
    18:00 +28°C° 0 mm 3 mps 756 mmHg 65%
    19:00 +27°C° 0 mm 3 mps 757 mmHg 68%
    20:00 +26°C° 0 mm 2 mps 757 mmHg 72%
    21:00 +25°C° 0 mm 2 mps 757 mmHg 76%
    22:00 +24°C° 0 mm 2 mps 757 mmHg 76%
    23:00 +24°C° 0 mm 2 mps 757 mmHg 77%

    Tomorrow, 18 October, Wednesday

    Time Temperature Precipitation Wind Pressure Humidity
    00:00 +23°C° 0 mm 2 mps 757 mmHg 77%
    01:00 +23°C° 0 mm 2 mps 757 mmHg 78%
    02:00 +23°C° 0 mm 2 mps 757 mmHg 78%
    03:00 +23°C° 0 mm 1 mps 756 mmHg 79%
    04:00 +21°C° 0 mm 2 mps 756 mmHg 79%
    05:00 +21°C° 0 mm 2 mps 756 mmHg 80%
    06:00 +21°C° 0 mm 2 mps 756 mmHg 80%
    07:00 +24°C° 0 mm 2 mps 756 mmHg 76%
    08:00 +25°C° 0 mm 1 mps 757 mmHg 72%
    09:00 +27°C° 0 mm 1 mps 757 mmHg 69%
    10:00 +30°C° 0 mm 1 mps 756 mmHg 62%
    11:00 +32°C° 0 mm 1 mps 756 mmHg 55%
    12:00 +35°C° 0 mm 1 mps 756 mmHg 49%
    13:00 +35°C° 0 mm 1 mps 755 mmHg 49%
    14:00 +36°C° 0 mm 2 mps 755 mmHg 50%
    15:00 +36°C° 0 mm 2 mps 754 mmHg 50%
    16:00 +34°C° 0.2 mm 2 mps 754 mmHg 58%
    17:00 +31°C° 0.2 mm 2 mps 754 mmHg 66%
    18:00 +29°C° 0.2 mm 2 mps 753 mmHg 74%
    19:00 +28°C° 0.9 mm 2 mps 753 mmHg 79%
    20:00 +27°C° 0.9 mm 2 mps 753 mmHg 83%
    21:00 +26°C° 0.9 mm 1 mps 753 mmHg 87%
    22:00 +26°C° 0.1 mm 2 mps 753 mmHg 87%
    23:00 +26°C° 0.1 mm 2 mps 752 mmHg 87%

    Day after tomorrow, 19 October, Thursday

    Time Temperature Precipitation Wind Pressure Humidity
    00:00 +26°C° 0.1 mm 2 mps 752 mmHg 86%
    01:00 +26°C° 0 mm 2 mps 751 mmHg 83%
    02:00 +26°C° 0 mm 2 mps 750 mmHg 81%
    03:00 +26°C° 0 mm 2 mps 749 mmHg 78%
    04:00 +26°C° 2 mm 3 mps 750 mmHg 80%
    05:00 +25°C° 2 mm 4 mps 750 mmHg 83%
    06:00 +24°C° 2 mm 6 mps 751 mmHg 85%
    07:00 +23°C° 3.7 mm 5 mps 752 mmHg 87%
    08:00 +22°C° 3.7 mm 5 mps 754 mmHg 88%
    09:00 +21°C° 3.7 mm 5 mps 755 mmHg 89%
    10:00 +22°C° 0.1 mm 5 mps 755 mmHg 85%
    11:00 +23°C° 0.1 mm 5 mps 755 mmHg 80%
    12:00 +25°C° 0.1 mm 4 mps 756 mmHg 76%
    13:00 +25°C° 0 mm 4 mps 756 mmHg 74%
    14:00 +25°C° 0 mm 4 mps 756 mmHg 73%
    15:00 +25°C° 0 mm 3 mps 756 mmHg 72%
    16:00 +25°C° 0.1 mm 3 mps 756 mmHg 77%
    17:00 +24°C° 0.1 mm 3 mps 756 mmHg 82%
    18:00 +23°C° 0.1 mm 2 mps 757 mmHg 87%
    19:00 +21°C° 0.1 mm 3 mps 757 mmHg 88%
    20:00 +20°C° 0.1 mm 3 mps 758 mmHg 88%
    21:00 +20°C° 0.1 mm 3 mps 759 mmHg 89%
    22:00 +19°C° 0.1 mm 3 mps 759 mmHg 89%
    23:00 +19°C° 0.1 mm 3 mps 759 mmHg 89%

    20 October, Friday

    Time Temperature Precipitation Wind Pressure Humidity
    00:00 +19°C° 0.1 mm 2 mps 759 mmHg 89%
    01:00 +18°C° 0 mm 2 mps 758 mmHg 89%
    02:00 +18°C° 0 mm 2 mps 758 mmHg 89%
    03:00 +18°C° 0 mm 2 mps 758 mmHg 90%
    04:00 +18°C° 0 mm 2 mps 758 mmHg 90%
    05:00 +18°C° 0 mm 2 mps 759 mmHg 90%
    06:00 +18°C° 0 mm 2 mps 759 mmHg 91%
    07:00 +20°C° 0 mm 2 mps 759 mmHg 86%
    08:00 +21°C° 0 mm 3 mps 759 mmHg 81%
    09:00 +22°C° 0 mm 3 mps 760 mmHg 77%
    10:00 +23°C° 0 mm 4 mps 759 mmHg 72%
    11:00 +25°C° 0 mm 4 mps 759 mmHg 67%
    12:00 +27°C° 0 mm 4 mps 758 mmHg 62%
    13:00 +27°C° 0 mm 4 mps 757 mmHg 63%
    14:00 +27°C° 0 mm 4 mps 757 mmHg 63%
    15:00 +27°C° 0 mm 5 mps 756 mmHg 63%
    16:00 +26°C° 0 mm 5 mps 756 mmHg 68%
    17:00 +23°C° 0 mm 5 mps 756 mmHg 72%
    18:00 +22°C° 0 mm 5 mps 755 mmHg 77%
    19:00 +22°C° 0 mm 4 mps 756 mmHg 79%
    20:00 +21°C° 0 mm 4 mps 756 mmHg 80%
    21:00 +21°C° 0 mm 4 mps 756 mmHg 82%
    22:00 +21°C° 0 mm 4 mps 756 mmHg 82%
    23:00 +21°C° 0 mm 4 mps 755 mmHg 82%

    21 October, Saturday

    Time Temperature Precipitation Wind Pressure Humidity
    00:00 +21°C° 0 mm 3 mps 755 mmHg 82%
    01:00 +21°C° 0.1 mm 3 mps 754 mmHg 84%
    02:00 +20°C° 0.1 mm 3 mps 754 mmHg 85%
    03:00 +20°C° 0.1 mm 3 mps 753 mmHg 87%
    04:00 +20°C° 0.3 mm 3 mps 753 mmHg 89%
    05:00 +20°C° 0.3 mm 3 mps 753 mmHg 91%
    06:00 +20°C° 0.3 mm 2 mps 753 mmHg 93%
    07:00 +21°C° 0.2 mm 2 mps 753 mmHg 91%
    08:00 +23°C° 0.2 mm 2 mps 753 mmHg 89%
    09:00 +24°C° 0.2 mm 2 mps 754 mmHg 86%
    10:00 +26°C° 0 mm 2 mps 753 mmHg 78%
    11:00 +28°C° 0 mm 1 mps 753 mmHg 69%
    12:00 +30°C° 0 mm 1 mps 753 mmHg 61%
    13:00 +30°C° 0.4 mm 1 mps 752 mmHg 63%
    14:00 +29°C° 0.4 mm 2 mps 752 mmHg 65%
    15:00 +29°C° 0.4 mm 2 mps 751 mmHg 67%
    16:00 +28°C° 1.4 mm 2 mps 752 mmHg 73%
    17:00 +26°C° 1.4 mm 2 mps 752 mmHg 79%
    18:00 +25°C° 1.4 mm 2 mps 752 mmHg 85%
    19:00 +24°C° 0.5 mm 2 mps 753 mmHg 88%
    20:00 +24°C° 0.5 mm 1 mps 753 mmHg 90%
    21:00 +23°C° 0.5 mm 1 mps 754 mmHg 92%
    22:00 +22°C° 0.3 mm 1 mps 754 mmHg 93%
    23:00 +21°C° 0.3 mm 2 mps 754 mmHg 94%

    22 October, Sunday

    Time Temperature Precipitation Wind Pressure Humidity
    00:00 +21°C° 0.3 mm 2 mps 754 mmHg 94%
    01:00 +20°C° 0.3 mm 2 mps 754 mmHg 94%
    02:00 +20°C° 0.3 mm 3 mps 754 mmHg 94%
    03:00 +20°C° 0.3 mm 3 mps 754 mmHg 93%
    04:00 +20°C° 0.2 mm 3 mps 755 mmHg 93%
    05:00 +19°C° 0.2 mm 3 mps 755 mmHg 92%
    06:00 +19°C° 0.2 mm 3 mps 756 mmHg 92%
    07:00 +19°C° 0.1 mm 4 mps 756 mmHg 90%
    08:00 +19°C° 0.1 mm 4 mps 757 mmHg 88%
    09:00 +19°C° 0.1 mm 5 mps 757 mmHg 86%
    10:00 +18°C° 0.1 mm 4 mps 758 mmHg 85%
    11:00 +18°C° 0.1 mm 4 mps 758 mmHg 84%
    12:00 +18°C° 0.1 mm 4 mps 758 mmHg 83%
    13:00 +18°C° 0.1 mm 4 mps 757 mmHg 78%
    14:00 +19°C° 0.1 mm 3 mps 757 mmHg 73%
    15:00 +20°C° 0.1 mm 3 mps 757 mmHg 68%
    16:00 +19°C° 0.1 mm 3 mps 757 mmHg 66%
    17:00 +19°C° 0.1 mm 3 mps 757 mmHg 65%
    18:00 +18°C° 0.1 mm 3 mps 758 mmHg 64%
    19:00 +17°C° 0 mm 3 mps 758 mmHg 65%
    20:00 +16°C° 0 mm 3 mps 758 mmHg 67%
    21:00 +14°C° 0 mm 4 mps 758 mmHg 68%
    22:00 +13°C° 0 mm 4 mps 758 mmHg 69%
    23:00 +13°C° 0 mm 4 mps 758 mmHg 70%
    Show more